User: anonymous   Login
Location: Unspecified
(0.0000°N, 0.0000°E)
Time: 21:36:10
(UTC+01:00)
Language:

Gurwin Techsat 1B - Orbit

View from above orbital plane
View from above orbital plane
View from above satellite
View from above satellite

Ground track
Ground track

The orbit data is extracted from the following two-line orbital elements,

1 25397U 98043D   17057.92033887 -.00000010 +00000-0 +14559-4 0  9990
2 25397 098.5992 002.6474 0001114 018.0714 342.0504 14.23615667967888
Epoch (UTC): 26 February 2017 22:05:17
Eccentricity: 0.0001114
inclination: 98.5992°
perigee height: 812 km
apogee height: 814 km
right ascension of ascending node: 2.6474°
argument of perigee: 18.0714°
revolutions per day: 14.23615667
mean anomaly at epoch: 342.0504°
orbit number at epoch: 96788

The dashed part of the orbit path shows where the satellite is in the earth's shadow,  

DLR